TimeCST,TemperatureF,Dew PointF,Humidity,Sea Level PressureIn,VisibilityMPH,Wind Direction,Wind SpeedMPH,Gust SpeedMPH,PrecipitationIn,Events,Conditions,WindDirDegrees,DateUTC
12:53 AM,23.0,17.1,78,30.13,10.0,Calm,Calm,-,N/A,,Clear,0,2012-12-27 06:53:00
1:53 AM,21.0,17.1,85,30.12,10.0,ENE,3.5,-,N/A,,Clear,70,2012-12-27 07:53:00
2:53 AM,21.0,17.1,85,30.12,10.0,East,4.6,-,N/A,,Clear,80,2012-12-27 08:53:00
3:53 AM,19.0,16.0,88,30.12,10.0,Calm,Calm,-,N/A,,Clear,0,2012-12-27 09:53:00
4:53 AM,19.9,17.1,89,30.11,10.0,Calm,Calm,-,N/A,,Clear,0,2012-12-27 10:53:00
5:53 AM,19.9,17.1,89,30.09,10.0,Calm,Calm,-,N/A,,Clear,0,2012-12-27 11:53:00
6:53 AM,21.2,17.6,86,30.05,10.0,Calm,Calm,-,N/A,,Clear,0,2012-12-27 12:53:00
7:53 AM,21.0,18.0,88,30.11,9.0,Calm,Calm,-,N/A,,Clear,0,2012-12-27 13:53:00
9:53 AM,34.0,23.0,64,30.09,10.0,South,18.4,24.2,N/A,,Clear,170,2012-12-27 15:53:00
10:53 AM,36.0,21.0,55,30.09,10.0,South,9.2,-,N/A,,Clear,180,2012-12-27 16:53:00
11:53 AM,37.0,21.9,54,30.06,10.0,South,17.3,20.7,N/A,,Clear,180,2012-12-27 17:53:00
12:53 PM,37.0,21.9,54,30.02,10.0,South,18.4,24.2,N/A,,Clear,170,2012-12-27 18:53:00
1:53 PM,36.0,21.0,55,30.00,10.0,SSE,8.1,-,N/A,,Clear,150,2012-12-27 19:53:00
2:53 PM,36.0,23.0,59,30.00,10.0,South,9.2,-,N/A,,Clear,180,2012-12-27 20:53:00
3:53 PM,36.0,24.1,62,29.98,10.0,South,9.2,-,N/A,,Clear,180,2012-12-27 21:53:00
4:53 PM,34.0,24.1,67,29.97,10.0,SSE,8.1,-,N/A,,Clear,160,2012-12-27 22:53:00
5:53 PM,32.0,23.0,69,29.98,10.0,Calm,Calm,-,N/A,,Clear,0,2012-12-27 23:53:00
6:53 PM,32.0,23.0,69,29.98,10.0,Calm,Calm,-,N/A,,Clear,0,2012-12-28 00:53:00
7:53 PM,33.1,24.1,70,29.98,10.0,Calm,Calm,-,N/A,,Overcast,0,2012-12-28 01:53:00
8:53 PM,32.0,25.0,75,29.98,10.0,Calm,Calm,-,N/A,,Scattered Clouds,0,2012-12-28 02:53:00
9:40 PM,33.8,26.6,75,29.96,10.0,Calm,Calm,-,N/A,,Overcast,0,2012-12-28 03:40:00
9:53 PM,33.1,26.1,75,29.99,10.0,Calm,Calm,-,N/A,,Overcast,0,2012-12-28 03:53:00
10:44 PM,32.0,28.4,87,29.97,9.0,South,5.8,-,N/A,,Overcast,180,2012-12-28 04:44:00
10:53 PM,32.0,28.9,88,30.00,7.0,Calm,Calm,-,N/A,,Overcast,0,2012-12-28 04:53:00
11:35 PM,32.0,28.4,87,29.98,8.0,SSW,4.6,-,N/A,,Overcast,200,2012-12-28 05:35:00
11:45 PM,32.0,28.4,87,29.98,8.0,Calm,Calm,-,N/A,,Overcast,0,2012-12-28 05:45:00
11:53 PM,32.0,28.9,88,30.00,8.0,South,3.5,-,N/A,,Overcast,180,2012-12-28 05:53:00